Regional Weather Roundup
Issued by NWS

Home | Current Version | Previous Version | Graphics & Text | Print | Product List | Glossary Off
Versions: 1 2 3 4 5 6 7 8 9 10 11 12 13 14 15 16 17 18 19 20 21 22 23 24 25 26 27 28 29 30 31 32 33 34 35 36 37 38 39 40 41 42 43 44 45 46 47 48 49 50

000
ASUS43 KLMK 201010
RWRKY
KENTUCKY REGIONAL WEATHER ROUNDUP
NATIONAL WEATHER SERVICE LOUISVILLE KY
600 AM EDT SUN MAY 20 2018

NOTE "FAIR" INDICATES FEW OR NO CLOUDS BELOW 12,000 FEET
WITH NO SIGNIFICANT WEATHER AND/OR OBSTRUCTIONS TO VISIBILITY.

KYZ001>023-026-027-061>063-070>075-201100-
WESTERN AND SOUTH CENTRAL KENTUCKY

CITY           SKY/WX    TMP DP  RH WIND       PRES   REMARKS
PADUCAH        FAIR      66  63  90 S3        30.02R
HENDERSON      NOT AVBL
OWENSBORO      FAIR      67  64  90 S5        30.04R
HOPKINSVILLE   FAIR      65  65 100 S3        30.04S
BOWLING GREEN  FAIR      68  65  90 S3        30.04F
GLASGOW        FAIR      64  61  90 CALM      30.06F
$$

KYZ024-025-028>034-038-045-046-053-201100-
NORTH CENTRAL KENTUCKY

CITY           SKY/WX    TMP DP  RH WIND       PRES   REMARKS
LOUISVILLE/SDF FAIR      68  65  90 SE7       30.01F
LOUISVILLE/LOU FAIR      66  65  96 SE6       30.02F
FORT KNOX      FAIR      66  66 100 SE7       30.03F
$$

KYZ035>037-039>044-047>052-055>060-089>105-201100-
NORTHEAST KENTUCKY

CITY           SKY/WX    TMP DP  RH WIND       PRES   REMARKS
LEXINGTON      FAIR      68  66  93 SW7       30.07S FOG
COVINGTON      MOCLDY    65  63  93 S6        30.04R FOG
FRANKFORT      FAIR      67  64  90 SW3       30.05R
$$

KYZ054-064>069-076>088-106>120-201100-
SOUTHEAST KENTUCKY

CITY           SKY/WX    TMP DP  RH WIND       PRES   REMARKS
JACKSON        FAIR      64  62  93 CALM      30.09F FOG
LONDON         FOG       63  63 100 CALM      30.09F VSB 3/4
SOMERSET       FOG       63  63 100 CALM      30.10S VSB 1/4
MIDDLESBORO    CLOUDY    63  63 100 CALM      30.13R FOG
MONTICELLO     FAIR      64  64 100 W9        30.10
$$





USA.gov is the U.S. government's official web portal to all federal, state and local government web resources and services.